This is the latest recevied weather packets stored in our database for station/object LX0APE-4. If no packets are shown the sender has not sent any weather packets the latest 10 day(s).
| Time | Temp. | Humidity | Pressure | Rain* | Wind** | Luminosity | Snow |
|---|---|---|---|---|---|---|---|
| 1777579034 | 13.89° C | 26% | 5020.9 hPa | 0 mm | - | - | - |
| 1777578723 | 13.89° C | 25% | 5020.8 hPa | 0 mm | - | - | - |
| 1777578423 | 13.89° C | 25% | 5020.8 hPa | 0 mm | - | - | - |
| 1777578124 | 13.89° C | 25% | 5020.6 hPa | 0 mm | - | - | - |
| 1777577823 | 13.89° C | 25% | 5020.8 hPa | 0 mm | - | - | - |
| 1777577524 | 13.89° C | 25% | 5020.6 hPa | 0 mm | - | - | - |
| 1777577224 | 13.89° C | 25% | 5020.6 hPa | 0 mm | - | - | - |
| 1777576928 | 13.89° C | 24% | 5020.5 hPa | 0 mm | - | - | - |
| 1777576924 | 13.89° C | 24% | 5020.5 hPa | 0 mm | - | - | - |
| 1777576624 | 14.44° C | 24% | 5020.5 hPa | 0 mm | - | - | - |
| 1777576323 | 14.44° C | 24% | 5020.5 hPa | 0 mm | - | - | - |
| 1777576023 | 14.44° C | 24% | 5020.5 hPa | 0 mm | - | - | - |
| 1777575724 | 15° C | 22% | 5020.4 hPa | 0 mm | - | - | - |
| 1777575424 | 15° C | 22% | 5020.2 hPa | 0 mm | - | - | - |
| 1777575123 | 15° C | 22% | 5020.3 hPa | 0 mm | - | - | - |
| 1777574823 | 15.56° C | 22% | 5020.3 hPa | 0 mm | - | - | - |
| 1777574523 | 15.56° C | 21% | 5020.1 hPa | 0 mm | - | - | - |
| 1777574224 | 16.11° C | 21% | 5020.1 hPa | 0 mm | - | - | - |
| 1777573924 | 16.67° C | 20% | 5020.1 hPa | 0 mm | - | - | - |
| 1777573624 | 17.78° C | 20% | 5019.9 hPa | 0 mm | - | - | - |
| 1777573324 | 18.33° C | 19% | 5019.8 hPa | 0 mm | - | - | - |
| 1777573023 | 17.78° C | 20% | 5019.8 hPa | 0 mm | - | - | - |
| 1777572724 | 17.78° C | 19% | 5019.8 hPa | 0 mm | - | - | - |
| 1777572435 | 18.33° C | 19% | 5019.7 hPa | 0 mm | - | - | - |
| 1777572424 | 18.33° C | 19% | 5019.7 hPa | 0 mm | - | - | - |
* Rain latest hour (hover to see other rain measurements)
** Current wind speed in m/s (hover to see current wind gust speed)